Simultaneous Nadir Overpasses (SNOs) Predictions

Prediction of SNOs between GOES-15 and METOP-A Satellite Orbit:

Table of predicted SNOs for the next 14.0 days since TLE Epoch: 5/10/2019
Index Date Time (GOES-15) GOES-15 Lat,Lon METOP-A Lat,Lon Distance(km) Time Diff (sec)
1 05/11/2019 05:46:15 0.11,-128.29 -0.15,-129.42 129.96 80
2 05/12/2019 05:22:53 0.11,-128.30 0.97,-124.43 441.04 80
3 05/13/2019 17:41:40 -0.12,-128.36 0.03,-129.00 73.34 80
4 05/14/2019 17:23:38 -0.12,-128.37 -1.09,-124.00 497.66 80
5 05/16/2019 05:42:33 0.12,-128.36 0.07,-128.60 27.06 80
6 05/18/2019 17:40:38 -0.12,-128.42 -0.19,-128.17 28.57 80
7 05/20/2019 05:59:33 0.12,-128.41 -0.83,-132.77 496.60 80
8 05/21/2019 05:36:11 0.13,-128.42 0.29,-127.78 73.54 80
9 05/22/2019 17:54:58 -0.13,-128.46 0.71,-132.34 442.58 80
10 05/23/2019 17:36:56 -0.14,-128.46 -0.41,-127.35 127.49 80




NCC Satellite Simultaneous Nadir Overpasses (SNOs) Prediction Service
